| time (UTC) | temp F | wind direction | speed knots | gust knots | rain 1hr in | rain 24hr in | rain mn in | humidity % | barometer mb |
| 20260507065154 | 52 | 136 | 1.7 | 3.5 | 0.00 | 0.00 | 0.00 | 42 | 1020.4 |
| 20260507064652 | 52 | 134 | 2.6 | 4.3 | 0.00 | 0.00 | 0.00 | 42 | 1020.4 |
| 20260507064150 | 53 | 126 | 2.6 | 3.5 | 0.00 | 0.00 | 0.00 | 42 | 1020.3 |
| 20260507063648 | 53 | 137 | 1.7 | 4.3 | 0.00 | 0.00 | 0.00 | 41 | 1020.0 |
| 20260507063144 | 53 | 130 | 1.7 | 3.5 | 0.00 | 0.00 | 0.00 | 41 | 1020.2 |
| 20260507062641 | 53 | 123 | 1.7 | 4.3 | 0.00 | 0.00 | 0.00 | 40 | 1020.0 |
| 20260507062139 | 53 | 152 | 0.9 | 4.3 | 0.00 | 0.00 | 0.00 | 40 | 1020.2 |
| 20260507061636 | 53 | 136 | 1.7 | 4.3 | 0.00 | 0.00 | 0.00 | 40 | 1020.2 |
| 20260507061134 | 53 | 155 | 1.7 | 3.5 | 0.00 | 0.00 | 0.00 | 40 | 1020.0 |
| 20260507060632 | 53 | 138 | 2.6 | 6.1 | 0.00 | 0.00 | 0.00 | 40 | 1020.0 |
| 20260507060128 | 53 | 121 | 2.6 | 3.5 | 0.00 | 0.00 | 0.00 | 40 | 1020.0 |
| 20260507055624 | 54 | 147 | 2.6 | 4.3 | 0.00 | 0.00 | 0.00 | 40 | 1020.2 |
| 20260507055120 | 54 | 129 | 1.7 | 8.7 | 0.00 | 0.00 | 0.00 | 40 | 1019.8 |
| 20260507054616 | 54 | 149 | 2.6 | 4.3 | 0.00 | 0.00 | 0.00 | 40 | 1019.9 |
| 20260507054113 | 54 | 146 | 1.7 | 9.6 | 0.00 | 0.00 | 0.00 | 39 | 1019.8 |
| 20260507053611 | 54 | 141 | 1.7 | 7.8 | 0.00 | 0.00 | 0.00 | 39 | 1019.9 |
| 20260507053109 | 54 | 122 | 1.7 | 4.3 | 0.00 | 0.00 | 0.00 | 39 | 1019.9 |
| 20260507052607 | 54 | 135 | 3.5 | 7.0 | 0.00 | 0.00 | 0.00 | 39 | 1020.0 |
| 20260507052103 | 54 | 117 | 2.6 | 3.5 | 0.00 | 0.00 | 0.00 | 40 | 1019.8 |
| 20260507051601 | 54 | 150 | 1.7 | 4.3 | 0.00 | 0.00 | 0.00 | 39 | 1019.9 |
| 20260507051057 | 54 | 126 | 4.3 | 4.3 | 0.00 | 0.00 | 0.00 | 39 | 1019.9 |
| 20260507050554 | 55 | 143 | 5.2 | 6.1 | 0.00 | 0.00 | 0.00 | 39 | 1019.7 |
| 20260507050051 | 55 | 119 | 3.5 | 5.2 | 0.00 | 0.00 | 0.00 | 39 | 1019.8 |
| 20260507045547 | 55 | 174 | 1.7 | 6.1 | 0.00 | 0.00 | 0.00 | 38 | 1019.6 |
| 20260507045045 | 55 | 207 | 1.7 | 5.2 | 0.00 | 0.00 | 0.00 | 38 | 1019.6 |
| 20260507044541 | 55 | 139 | 4.3 | 7.0 | 0.00 | 0.00 | 0.00 | 38 | 1019.7 |
| 20260507044038 | 55 | 146 | 2.6 | 4.3 | 0.00 | 0.00 | 0.00 | 38 | 1019.7 |
| 20260507043534 | 55 | 132 | 0.0 | 5.2 | 0.00 | 0.00 | 0.00 | 38 | 1019.6 |
| 20260507043032 | 55 | 135 | 4.3 | 7.0 | 0.00 | 0.00 | 0.00 | 38 | 1019.6 |
| 20260507042527 | 55 | 121 | 1.7 | 4.3 | 0.00 | 0.00 | 0.00 | 38 | 1019.4 |
| 20260507042023 | 55 | 130 | 2.6 | 5.2 | 0.00 | 0.00 | 0.00 | 38 | 1019.6 |
| 20260507041520 | 55 | 160 | 1.7 | 3.5 | 0.00 | 0.00 | 0.00 | 38 | 1019.3 |
| 20260507041017 | 55 | 164 | 0.9 | 5.2 | 0.00 | 0.00 | 0.00 | 38 | 1019.2 |
| 20260507040513 | 55 | 136 | 3.5 | 4.3 | 0.00 | 0.00 | 0.00 | 37 | 1019.4 |
| 20260507040009 | 55 | 105 | 0.0 | 2.6 | 0.00 | 0.00 | 0.00 | 37 | 1019.3 |
| 20260507035506 | 56 | 99 | 1.7 | 7.0 | 0.00 | 0.00 | 0.00 | 37 | 1019.1 |
| 20260507035002 | 56 | 149 | 2.6 | 3.5 | 0.00 | 0.00 | 0.00 | 37 | 1019.2 |
| 20260507034459 | 56 | 201 | 1.7 | 3.5 | 0.00 | 0.00 | 0.00 | 37 | 1019.0 |
| 20260507033957 | 56 | 152 | 1.7 | 4.3 | 0.00 | 0.00 | 0.00 | 37 | 1018.9 |
| 20260507033455 | 56 | 139 | 3.5 | 4.3 | 0.00 | 0.00 | 0.00 | 37 | 1019.0 |
| 20260507032952 | 56 | 129 | 2.6 | 3.5 | 0.00 | 0.00 | 0.00 | 36 | 1018.9 |
| 20260507032449 | 57 | 164 | 1.7 | 3.5 | 0.00 | 0.00 | 0.00 | 36 | 1018.9 |
| 20260507031945 | 57 | 136 | 1.7 | 5.2 | 0.00 | 0.00 | 0.00 | 36 | 1018.7 |
| 20260507031441 | 57 | 200 | 2.6 | 5.2 | 0.00 | 0.00 | 0.00 | 36 | 1018.7 |
| 20260507030938 | 57 | 137 | 3.5 | 7.8 | 0.00 | 0.00 | 0.00 | 35 | 1018.7 |
| 20260507030435 | 58 | 127 | 1.7 | 6.1 | 0.00 | 0.00 | 0.00 | 35 | 1018.3 |
| 20260507025932 | 58 | 145 | 0.9 | 4.3 | 0.00 | 0.00 | 0.00 | 35 | 1018.5 |
| 20260507025430 | 58 | 189 | 3.5 | 7.0 | 0.00 | 0.00 | 0.00 | 35 | 1018.4 |
| 20260507024927 | 58 | 126 | 0.9 | 3.5 | 0.00 | 0.00 | 0.00 | 35 | 1018.4 |
| 20260507024424 | 59 | 187 | 1.7 | 2.6 | 0.00 | 0.00 | 0.00 | 34 | 1018.4 |
| 20260507023920 | 59 | 215 | 1.7 | 4.3 | 0.00 | 0.00 | 0.00 | 34 | 1018.3 |
| 20260507023417 | 60 | 169 | 1.7 | 5.2 | 0.00 | 0.00 | 0.00 | 34 | 1018.1 |
| 20260507022914 | 60 | 201 | 3.5 | 3.5 | 0.00 | 0.00 | 0.00 | 33 | 1018.0 |
| 20260507022411 | 60 | 139 | 1.7 | 1.7 | 0.00 | 0.00 | 0.00 | 33 | 1018.1 |
| 20260507021907 | 61 | 142 | 0.9 | 6.1 | 0.00 | 0.00 | 0.00 | 33 | 1018.0 |
| 20260507021402 | 62 | 149 | 2.6 | 4.3 | 0.00 | 0.00 | 0.00 | 32 | 1017.8 |
| 20260507020900 | 62 | 162 | 1.7 | 3.5 | 0.00 | 0.00 | 0.00 | 31 | 1017.9 |
| 20260507020356 | 63 | 180 | 0.0 | 3.5 | 0.00 | 0.00 | 0.00 | 31 | 1017.9 |
| 20260507015853 | 63 | 261 | 1.7 | 7.0 | 0.00 | 0.00 | 0.00 | 30 | 1017.7 |
| 20260507015352 | 64 | 200 | 1.7 | 4.3 | 0.00 | 0.00 | 0.00 | 30 | 1017.7 |
| 20260507014848 | 65 | 216 | 4.3 | 4.3 | 0.00 | 0.00 | 0.00 | 29 | 1017.7 |
| 20260507014344 | 65 | 197 | 2.6 | 7.8 | 0.00 | 0.00 | 0.00 | 29 | 1017.4 |
| 20260507013841 | 67 | 219 | 2.6 | 4.3 | 0.00 | 0.00 | 0.00 | 28 | 1017.1 |
| 20260507013338 | 66 | 168 | 0.9 | 4.3 | 0.00 | 0.00 | 0.00 | 29 | 1017.3 |
| 20260507012836 | 65 | 208 | 5.2 | 9.6 | 0.00 | 0.00 | 0.00 | 29 | 1017.2 |
| 20260507012331 | 66 | 223 | 1.7 | 8.7 | 0.00 | 0.00 | 0.00 | 28 | 1017.2 |
| 20260507011829 | 67 | 237 | 4.3 | 8.7 | 0.00 | 0.00 | 0.00 | 28 | 1017.2 |
| 20260507011326 | 68 | 225 | 3.5 | 6.1 | 0.00 | 0.00 | 0.00 | 27 | 1017.2 |
| 20260507010826 | 68 | 225 | 4.3 | 9.6 | 0.00 | 0.00 | 0.00 | 27 | 1017.1 |
| 20260507010321 | 69 | 244 | 5.2 | 5.2 | 0.00 | 0.00 | 0.00 | 26 | 1017.0 |
| 20260507005819 | 69 | 184 | 0.0 | 2.6 | 0.00 | 0.00 | 0.00 | 27 | 1017.1 |
| 20260507005316 | 68 | 203 | 1.7 | 5.2 | 0.00 | 0.00 | 0.00 | 26 | 1017.0 |
| 20260507004812 | 69 | 217 | 3.5 | 8.7 | 0.00 | 0.00 | 0.00 | 26 | 1017.2 |
| 20260507004310 | 69 | 162 | 0.0 | 4.3 | 0.00 | 0.00 | 0.00 | 26 | 1017.1 |
| 20260507003807 | 70 | 272 | 6.1 | 6.1 | 0.00 | 0.00 | 0.00 | 25 | 1017.0 |
| 20260507003301 | 71 | 209 | 0.0 | 6.1 | 0.00 | 0.00 | 0.00 | 25 | 1017.0 |
| 20260507002757 | 70 | 228 | 2.6 | 2.6 | 0.00 | 0.00 | 0.00 | 25 | 1016.8 |
| 20260507002253 | 70 | 236 | 0.9 | 8.7 | 0.00 | 0.00 | 0.00 | 24 | 1017.0 |
| 20260507001751 | 71 | 261 | 4.3 | 6.1 | 0.00 | 0.00 | 0.00 | 24 | 1017.0 |
| 20260507001248 | 71 | 224 | 4.3 | 5.2 | 0.00 | 0.00 | 0.00 | 24 | 1016.8 |
| 20260507000744 | 70 | 275 | 3.5 | 5.2 | 0.00 | 0.00 | 0.00 | 24 | 1017.0 |
| 20260507000240 | 70 | 233 | 1.7 | 6.1 | 0.00 | 0.00 | 0.00 | 24 | 1017.0 |
| 20260506235737 | 70 | 205 | 1.7 | 5.2 | 0.00 | 0.00 | 0.00 | 24 | 1016.7 |
| 20260506235232 | 70 | 141 | 1.7 | 7.0 | 0.00 | 0.00 | 0.00 | 25 | 1016.8 |
| 20260506234730 | 70 | 240 | 2.6 | 6.1 | 0.00 | 0.00 | 0.00 | 24 | 1016.7 |
| 20260506234227 | 71 | 137 | 1.7 | 3.5 | 0.00 | 0.00 | 0.00 | 24 | 1016.7 |
| 20260506233724 | 70 | 205 | 2.6 | 5.2 | 0.00 | 0.00 | 0.00 | 24 | 1016.8 |
| 20260506233220 | 69 | 215 | 2.6 | 7.8 | 0.00 | 0.00 | 0.00 | 24 | 1017.0 |
| 20260506232717 | 72 | 232 | 2.6 | 4.3 | 0.00 | 0.00 | 0.00 | 23 | 1016.8 |
| 20260506232212 | 71 | 234 | 0.9 | 4.3 | 0.00 | 0.00 | 0.00 | 23 | 1017.1 |
| 20260506231710 | 70 | 314 | 3.5 | 4.3 | 0.00 | 0.00 | 0.00 | 24 | 1017.0 |
| 20260506231208 | 71 | 279 | 2.6 | 4.3 | 0.00 | 0.00 | 0.00 | 23 | 1017.2 |
| 20260506230704 | 72 | 341 | 1.7 | 5.2 | 0.00 | 0.00 | 0.00 | 22 | 1017.0 |
| 20260506230201 | 71 | 253 | 2.6 | 8.7 | 0.00 | 0.00 | 0.00 | 22 | 1016.8 |
| 20260506225658 | 71 | 305 | 4.3 | 6.1 | 0.00 | 0.00 | 0.00 | 23 | 1016.8 |
| 20260506225155 | 71 | 268 | 3.5 | 6.1 | 0.00 | 0.00 | 0.00 | 23 | 1017.1 |
| 20260506224651 | 71 | 245 | 5.2 | 7.8 | 0.00 | 0.00 | 0.00 | 23 | 1016.8 |
| 20260506224148 | 69 | 164 | 2.6 | 3.5 | 0.00 | 0.00 | 0.00 | 24 | 1017.1 |
| 20260506223644 | 70 | 219 | 5.2 | 7.0 | 0.00 | 0.00 | 0.00 | 23 | 1017.1 |
| 20260506223140 | 71 | 321 | 3.5 | 5.2 | 0.00 | 0.00 | 0.00 | 23 | 1017.0 |
| 20260506222637 | 70 | 335 | 3.5 | 3.5 | 0.00 | 0.00 | 0.00 | 24 | 1017.3 |
| 20260506222133 | 70 | 333 | 7.0 | 7.8 | 0.00 | 0.00 | 0.00 | 24 | 1017.2 |
| 20260506221631 | 71 | 274 | 2.6 | 7.0 | 0.00 | 0.00 | 0.00 | 23 | 1017.3 |
| 20260506221129 | 69 | 299 | 3.5 | 7.8 | 0.00 | 0.00 | 0.00 | 24 | 1017.2 |
| 20260506220625 | 71 | 274 | 2.6 | 6.1 | 0.00 | 0.00 | 0.00 | 23 | 1017.5 |
| 20260506220121 | 71 | 346 | 4.3 | 6.1 | 0.00 | 0.00 | 0.00 | 23 | 1017.3 |
| 20260506215618 | 71 | 302 | 2.6 | 8.7 | 0.00 | 0.00 | 0.00 | 24 | 1017.5 |
| 20260506215113 | 70 | 292 | 2.6 | 4.3 | 0.00 | 0.00 | 0.00 | 23 | 1017.4 |
| 20260506214610 | 71 | 62 | 0.9 | 7.0 | 0.00 | 0.00 | 0.00 | 24 | 1017.7 |
| 20260506214108 | 69 | 46 | 0.9 | 4.3 | 0.00 | 0.00 | 0.00 | 24 | 1017.8 |
| 20260506213606 | 69 | 233 | 1.7 | 4.3 | 0.00 | 0.00 | 0.00 | 23 | 1017.9 |
| 20260506213102 | 69 | 316 | 2.6 | 6.1 | 0.00 | 0.00 | 0.00 | 23 | 1018.0 |
| 20260506212559 | 69 | 237 | 1.7 | 6.1 | 0.00 | 0.00 | 0.00 | 23 | 1017.9 |
| 20260506212054 | 69 | 284 | 2.6 | 7.8 | 0.00 | 0.00 | 0.00 | 24 | 1018.0 |
| 20260506211550 | 69 | 257 | 9.6 | 9.6 | 0.00 | 0.00 | 0.00 | 23 | 1018.0 |
| 20260506211048 | 68 | 315 | 3.5 | 3.5 | 0.00 | 0.00 | 0.00 | 26 | 1018.0 |
| 20260506210544 | 69 | 241 | 1.7 | 5.2 | 0.00 | 0.00 | 0.00 | 24 | 1018.0 |
| 20260506210041 | 69 | 264 | 3.5 | 6.1 | 0.00 | 0.00 | 0.00 | 24 | 1018.0 |
| 20260506205538 | 70 | 312 | 6.1 | 10.4 | 0.00 | 0.00 | 0.00 | 24 | 1018.0 |
| 20260506205033 | 69 | 300 | 1.7 | 3.5 | 0.00 | 0.00 | 0.00 | 26 | 1018.0 |
| 20260506204531 | 68 | 293 | 3.5 | 3.5 | 0.00 | 0.00 | 0.00 | 26 | 1018.1 |
| 20260506204028 | 69 | 337 | 4.3 | 5.2 | 0.00 | 0.00 | 0.00 | 25 | 1018.4 |
| 20260506203526 | 68 | 323 | 2.6 | 5.2 | 0.00 | 0.00 | 0.00 | 25 | 1018.4 |
| 20260506203022 | 68 | 330 | 2.6 | 5.2 | 0.00 | 0.00 | 0.00 | 25 | 1018.4 |
| 20260506202520 | 67 | 158 | 1.7 | 6.1 | 0.00 | 0.00 | 0.00 | 26 | 1018.4 |
| 20260506202016 | 66 | 100 | 0.9 | 5.2 | 0.00 | 0.00 | 0.00 | 26 | 1018.3 |
| 20260506201514 | 66 | 201 | 2.6 | 3.5 | 0.00 | 0.00 | 0.00 | 26 | 1018.1 |
| 20260506201010 | 66 | 192 | 1.7 | 3.5 | 0.00 | 0.00 | 0.00 | 25 | 1018.4 |
| 20260506200506 | 66 | 303 | 2.6 | 4.3 | 0.00 | 0.00 | 0.00 | 27 | 1018.5 |
| 20260506200003 | 65 | 316 | 3.5 | 7.0 | 0.00 | 0.00 | 0.00 | 28 | 1018.5 |
| 20260506195500 | 65 | 10 | 1.7 | 2.6 | 0.00 | 0.00 | 0.00 | 26 | 1018.4 |
| 20260506194956 | 66 | 269 | 0.0 | 4.3 | 0.00 | 0.00 | 0.00 | 25 | 1018.6 |
| 20260506194454 | 66 | 298 | 2.6 | 9.6 | 0.00 | 0.00 | 0.00 | 27 | 1018.6 |
| 20260506193950 | 65 | 305 | 3.5 | 4.3 | 0.00 | 0.00 | 0.00 | 26 | 1018.4 |
| 20260506193448 | 66 | 279 | 0.9 | 5.2 | 0.00 | 0.00 | 0.00 | 26 | 1018.5 |
| 20260506192944 | 65 | 291 | 1.7 | 4.3 | 0.00 | 0.00 | 0.00 | 27 | 1018.5 |
| 20260506192441 | 66 | 334 | 4.3 | 4.3 | 0.00 | 0.00 | 0.00 | 26 | 1018.6 |
| 20260506191938 | 66 | 27 | 1.7 | 4.3 | 0.00 | 0.00 | 0.00 | 26 | 1018.6 |
| 20260506191434 | 65 | 106 | 0.0 | 4.3 | 0.00 | 0.00 | 0.00 | 26 | 1018.6 |
| 20260506190931 | 64 | 330 | 3.5 | 6.1 | 0.00 | 0.00 | 0.00 | 28 | 1018.6 |
| 20260506190428 | 63 | 111 | 0.0 | 3.5 | 0.00 | 0.00 | 0.00 | 27 | 1018.4 |
| 20260506185925 | 63 | 271 | 2.6 | 7.0 | 0.00 | 0.00 | 0.00 | 28 | 1018.7 |
| 20260506185422 | 64 | 328 | 1.7 | 5.2 | 0.00 | 0.00 | 0.00 | 27 | 1018.6 |
| 20260506184919 | 64 | 161 | 2.6 | 2.6 | 0.00 | 0.00 | 0.00 | 28 | 1018.6 |
| 20260506184416 | 63 | 0 | 1.7 | 5.2 | 0.00 | 0.00 | 0.00 | 29 | 1018.7 |
| 20260506183913 | 64 | 325 | 3.5 | 5.2 | 0.00 | 0.00 | 0.00 | 28 | 1018.9 |
| 20260506183408 | 63 | 303 | 2.6 | 7.0 | 0.00 | 0.00 | 0.00 | 28 | 1018.9 |
| 20260506182906 | 64 | 303 | 4.3 | 5.2 | 0.00 | 0.00 | 0.00 | 28 | 1019.0 |
| 20260506182403 | 63 | 118 | 1.7 | 2.6 | 0.00 | 0.00 | 0.00 | 28 | 1019.2 |
| 20260506181859 | 63 | 332 | 3.5 | 4.3 | 0.00 | 0.00 | 0.00 | 29 | 1019.2 |
| 20260506181358 | 63 | 334 | 4.3 | 11.3 | 0.00 | 0.00 | 0.00 | 29 | 1019.1 |
| 20260506180855 | 62 | 12 | 1.7 | 1.7 | 0.00 | 0.00 | 0.00 | 30 | 1019.0 |
| 20260506180351 | 62 | 83 | 0.9 | 3.5 | 0.00 | 0.00 | 0.00 | 29 | 1019.1 |
| 20260506175848 | 62 | 19 | 1.7 | 7.0 | 0.00 | 0.00 | 0.00 | 31 | 1019.0 |
| 20260506175344 | 60 | 148 | 0.0 | 3.5 | 0.00 | 0.00 | 0.00 | 32 | 1018.9 |
| 20260506174841 | 60 | 219 | 1.7 | 6.1 | 0.00 | 0.00 | 0.00 | 31 | 1019.0 |
| 20260506174339 | 59 | 342 | 1.7 | 3.5 | 0.00 | 0.00 | 0.00 | 32 | 1019.0 |
| 20260506173836 | 61 | 280 | 4.3 | 4.3 | 0.00 | 0.00 | 0.00 | 31 | 1019.0 |
| 20260506173333 | 61 | 2 | 0.0 | 3.5 | 0.00 | 0.00 | 0.00 | 33 | 1018.9 |
| 20260506172830 | 60 | 17 | 1.7 | 4.3 | 0.00 | 0.00 | 0.00 | 32 | 1018.7 |
| 20260506172327 | 59 | 333 | 1.7 | 7.8 | 0.00 | 0.00 | 0.00 | 34 | 1019.0 |
| 20260506171824 | 59 | 13 | 1.7 | 3.5 | 0.00 | 0.00 | 0.00 | 33 | 1018.6 |
| 20260506171321 | 59 | 299 | 1.7 | 5.2 | 0.00 | 0.00 | 0.00 | 33 | 1018.7 |
| 20260506170819 | 60 | 356 | 1.7 | 3.5 | 0.00 | 0.00 | 0.00 | 34 | 1018.6 |
| 20260506170314 | 59 | 347 | 0.0 | 1.7 | 0.00 | 0.00 | 0.00 | 32 | 1018.6 |
| 20260506165814 | 58 | 332 | 1.7 | 3.5 | 0.00 | 0.00 | 0.00 | 33 | 1018.7 |
| 20260506165311 | 58 | 52 | 3.5 | 3.5 | 0.00 | 0.00 | 0.00 | 33 | 1018.5 |
| 20260506164807 | 59 | 62 | 2.6 | 2.6 | 0.00 | 0.00 | 0.00 | 33 | 1018.7 |
| 20260506164304 | 57 | 184 | 0.9 | 2.6 | 0.00 | 0.00 | 0.00 | 34 | 1018.6 |
| 20260506163801 | 57 | 315 | 1.7 | 4.3 | 0.00 | 0.00 | 0.00 | 34 | 1018.5 |
| 20260506163256 | 57 | 17 | 3.5 | 4.3 | 0.00 | 0.00 | 0.00 | 33 | 1018.5 |
| 20260506162752 | 57 | 4 | 0.0 | 1.7 | 0.00 | 0.00 | 0.00 | 34 | 1018.5 |
| 20260506162250 | 57 | 321 | 1.7 | 2.6 | 0.00 | 0.00 | 0.00 | 33 | 1018.6 |
| 20260506161747 | 57 | 197 | 1.7 | 2.6 | 0.00 | 0.00 | 0.00 | 33 | 1018.5 |
| 20260506161244 | 57 | 123 | 1.7 | 3.5 | 0.00 | 0.00 | 0.00 | 34 | 1018.4 |
| 20260506160742 | 55 | 130 | 0.0 | 3.5 | 0.00 | 0.00 | 0.00 | 35 | 1018.5 |
| 20260506160238 | 54 | 285 | 1.7 | 2.6 | 0.00 | 0.00 | 0.00 | 36 | 1018.3 |
| 20260506155737 | 54 | 265 | 0.0 | 1.7 | 0.00 | 0.00 | 0.00 | 36 | 1018.5 |
| 20260506155233 | 54 | 31 | 0.0 | 3.5 | 0.00 | 0.00 | 0.00 | 37 | 1018.3 |
| 20260506153341 | 53 | 331 | 0.9 | 2.6 | 0.00 | 0.00 | 0.00 | 36 | 1018.3 |
| 20260506152837 | 53 | 114 | 3.5 | 3.5 | 0.00 | 0.00 | 0.00 | 37 | 1018.5 |
| 20260506152335 | 51 | 19 | 0.0 | 2.6 | 0.00 | 0.00 | 0.00 | 38 | 1018.1 |
| 20260506151833 | 50 | 331 | 2.6 | 3.5 | 0.00 | 0.00 | 0.00 | 39 | 1018.1 |
| 20260506151329 | 50 | 66 | 0.9 | 3.5 | 0.00 | 0.00 | 0.00 | 38 | 1018.0 |
| 20260506150827 | 50 | 79 | 0.9 | 1.7 | 0.00 | 0.00 | 0.00 | 41 | 1018.1 |
| 20260506150323 | 49 | 133 | 3.5 | 3.5 | 0.00 | 0.00 | 0.00 | 41 | 1018.3 |
| 20260506145820 | 48 | 108 | 2.6 | 2.6 | 0.00 | 0.00 | 0.00 | 44 | 1018.1 |
| 20260506145316 | 48 | 83 | 1.7 | 1.7 | 0.00 | 0.00 | 0.00 | 45 | 1018.1 |
| 20260506144814 | 48 | 353 | 1.7 | 1.7 | 0.00 | 0.00 | 0.00 | 46 | 1018.1 |
| 20260506144311 | 47 | 119 | 0.0 | 1.7 | 0.00 | 0.00 | 0.00 | 46 | 1018.0 |
| 20260506143809 | 47 | 76 | 1.7 | 2.6 | 0.00 | 0.00 | 0.00 | 47 | 1017.9 |
| 20260506143306 | 46 | 82 | 1.7 | 3.5 | 0.00 | 0.00 | 0.00 | 46 | 1017.8 |
| 20260506142804 | 46 | 117 | 0.0 | 1.7 | 0.00 | 0.00 | 0.00 | 48 | 1017.8 |
| 20260506142302 | 46 | 89 | 1.7 | 1.7 | 0.00 | 0.00 | 0.00 | 48 | 1017.8 |
| 20260506141800 | 45 | 109 | 1.7 | 3.5 | 0.00 | 0.00 | 0.00 | 49 | 1017.9 |
| 20260506141258 | 44 | 102 | 1.7 | 3.5 | 0.00 | 0.00 | 0.00 | 51 | 1017.7 |
| 20260506140755 | 44 | 114 | 1.7 | 2.6 | 0.00 | 0.00 | 0.00 | 52 | 1017.9 |
| 20260506140252 | 44 | 111 | 1.7 | 2.6 | 0.00 | 0.00 | 0.00 | 52 | 1017.9 |
| 20260506135749 | 44 | 121 | 1.7 | 2.6 | 0.00 | 0.00 | 0.00 | 52 | 1017.8 |
| 20260506135245 | 44 | 112 | 1.7 | 2.6 | 0.00 | 0.00 | 0.00 | 53 | 1017.7 |
| 20260506134742 | 44 | 121 | 1.7 | 2.6 | 0.00 | 0.00 | 0.00 | 53 | 1017.7 |
| 20260506134238 | 43 | 114 | 1.7 | 2.6 | 0.00 | 0.00 | 0.00 | 53 | 1017.5 |
| 20260506133736 | 43 | 101 | 0.0 | 3.5 | 0.00 | 0.00 | 0.00 | 54 | 1017.5 |
| 20260506133232 | 43 | 124 | 1.7 | 4.3 | 0.00 | 0.00 | 0.00 | 54 | 1017.4 |
| 20260506132729 | 43 | 122 | 2.6 | 3.5 | 0.00 | 0.00 | 0.00 | 53 | 1017.3 |
| 20260506132226 | 43 | 110 | 2.6 | 3.5 | 0.00 | 0.00 | 0.00 | 54 | 1017.2 |
| 20260506131724 | 42 | 109 | 2.6 | 3.5 | 0.00 | 0.00 | 0.00 | 54 | 1017.2 |
| 20260506131220 | 42 | 109 | 2.6 | 3.5 | 0.00 | 0.00 | 0.00 | 55 | 1017.1 |
| 20260506130717 | 41 | 103 | 2.6 | 3.5 | 0.00 | 0.00 | 0.00 | 56 | 1017.2 |
| 20260506130214 | 42 | 115 | 2.6 | 3.5 | 0.00 | 0.00 | 0.00 | 56 | 1017.2 |
| 20260506125712 | 42 | 106 | 2.6 | 3.5 | 0.00 | 0.00 | 0.00 | 56 | 1017.2 |
| 20260506125209 | 41 | 100 | 2.6 | 4.3 | 0.00 | 0.00 | 0.00 | 56 | 1017.1 |
| 20260506124707 | 41 | 106 | 2.6 | 2.6 | 0.00 | 0.00 | 0.00 | 57 | 1017.0 |
| 20260506124205 | 41 | 107 | 2.6 | 3.5 | 0.00 | 0.00 | 0.00 | 57 | 1017.0 |
| 20260506123702 | 41 | 109 | 2.6 | 3.5 | 0.00 | 0.00 | 0.00 | 58 | 1016.8 |
| 20260506123201 | 41 | 118 | 2.6 | 4.3 | 0.00 | 0.00 | 0.00 | 58 | 1016.6 |
| 20260506122657 | 41 | 105 | 1.7 | 3.5 | 0.00 | 0.00 | 0.00 | 58 | 1016.7 |
| 20260506122155 | 41 | 115 | 2.6 | 3.5 | 0.00 | 0.00 | 0.00 | 58 | 1016.5 |
| 20260506121653 | 41 | 112 | 2.6 | 3.5 | 0.00 | 0.00 | 0.00 | 57 | 1016.5 |
| 20260506121148 | 41 | 101 | 2.6 | 3.5 | 0.00 | 0.00 | 0.00 | 57 | 1016.5 |
| 20260506120647 | 41 | 127 | 1.7 | 4.3 | 0.00 | 0.00 | 0.00 | 57 | 1016.5 |
| 20260506120144 | 41 | 111 | 1.7 | 2.6 | 0.00 | 0.00 | 0.00 | 56 | 1016.6 |
| 20260506115642 | 42 | 129 | 2.6 | 3.5 | 0.00 | 0.00 | 0.00 | 56 | 1016.7 |
| 20260506115140 | 42 | 114 | 3.5 | 3.5 | 0.00 | 0.00 | 0.00 | 56 | 1016.5 |
| 20260506114637 | 41 | 102 | 2.6 | 2.6 | 0.00 | 0.00 | 0.00 | 57 | 1016.6 |
| 20260506114135 | 41 | 112 | 1.7 | 3.5 | 0.00 | 0.00 | 0.00 | 58 | 1016.6 |
| 20260506113633 | 40 | 110 | 2.6 | 3.5 | 0.00 | 0.00 | 0.00 | 60 | 1016.6 |
| 20260506113130 | 39 | 114 | 2.6 | 4.3 | 0.00 | 0.00 | 0.00 | 60 | 1016.5 |
| 20260506112626 | 39 | 117 | 2.6 | 4.3 | 0.00 | 0.00 | 0.00 | 60 | 1016.4 |
| 20260506112124 | 40 | 109 | 2.6 | 4.3 | 0.00 | 0.00 | 0.00 | 60 | 1016.4 |
| 20260506111621 | 40 | 124 | 2.6 | 4.3 | 0.00 | 0.00 | 0.00 | 60 | 1016.2 |
| 20260506111119 | 40 | 124 | 4.3 | 5.2 | 0.00 | 0.00 | 0.00 | 60 | 1016.5 |
| 20260506110616 | 40 | 114 | 2.6 | 3.5 | 0.00 | 0.00 | 0.00 | 60 | 1016.4 |
| 20260506110114 | 40 | 122 | 3.5 | 4.3 | 0.00 | 0.00 | 0.00 | 60 | 1016.4 |
| 20260506105610 | 40 | 115 | 1.7 | 3.5 | 0.00 | 0.00 | 0.00 | 60 | 1016.5 |
| 20260506105107 | 39 | 146 | 1.7 | 4.3 | 0.00 | 0.00 | 0.00 | 60 | 1016.4 |
| 20260506104605 | 40 | 125 | 3.5 | 3.5 | 0.00 | 0.00 | 0.00 | 60 | 1016.2 |
| 20260506104102 | 40 | 104 | 1.7 | 3.5 | 0.00 | 0.00 | 0.00 | 60 | 1016.4 |
| 20260506103559 | 40 | 109 | 2.6 | 4.3 | 0.00 | 0.00 | 0.00 | 59 | 1016.4 |
| 20260506103056 | 40 | 137 | 4.3 | 5.2 | 0.00 | 0.00 | 0.00 | 59 | 1016.1 |
| 20260506102554 | 40 | 119 | 3.5 | 4.3 | 0.00 | 0.00 | 0.00 | 59 | 1016.1 |
| 20260506102052 | 40 | 118 | 3.5 | 5.2 | 0.00 | 0.00 | 0.00 | 60 | 1016.4 |
| 20260506101548 | 39 | 127 | 3.5 | 5.2 | 0.00 | 0.00 | 0.00 | 60 | 1016.2 |
| 20260506101045 | 39 | 127 | 1.7 | 3.5 | 0.00 | 0.00 | 0.00 | 60 | 1016.4 |
| 20260506100543 | 40 | 104 | 2.6 | 3.5 | 0.00 | 0.00 | 0.00 | 59 | 1016.2 |
| 20260506100041 | 40 | 93 | 1.7 | 3.5 | 0.00 | 0.00 | 0.00 | 59 | 1016.4 |
| 20260506095540 | 40 | 105 | 1.7 | 3.5 | 0.00 | 0.00 | 0.00 | 58 | 1016.2 |
| 20260506095036 | 41 | 122 | 2.6 | 3.5 | 0.00 | 0.00 | 0.00 | 57 | 1016.2 |
| 20260506094533 | 41 | 107 | 1.7 | 3.5 | 0.00 | 0.00 | 0.00 | 57 | 1016.2 |
| 20260506094031 | 41 | 130 | 2.6 | 4.3 | 0.00 | 0.00 | 0.00 | 56 | 1016.2 |
| 20260506093529 | 42 | 131 | 3.5 | 4.3 | 0.00 | 0.00 | 0.00 | 55 | 1016.1 |
| 20260506093027 | 42 | 128 | 2.6 | 3.5 | 0.00 | 0.00 | 0.00 | 54 | 1016.1 |
| 20260506092524 | 42 | 139 | 0.9 | 4.3 | 0.00 | 0.00 | 0.00 | 54 | 1016.2 |
| 20260506092021 | 42 | 179 | 0.9 | 5.2 | 0.00 | 0.00 | 0.00 | 55 | 1016.2 |
| 20260506091520 | 42 | 133 | 1.7 | 3.5 | 0.00 | 0.00 | 0.00 | 54 | 1016.0 |
| 20260506091016 | 42 | 132 | 3.5 | 5.2 | 0.00 | 0.00 | 0.00 | 54 | 1015.8 |
| 20260506090514 | 42 | 115 | 0.9 | 6.1 | 0.00 | 0.00 | 0.00 | 54 | 1015.9 |
| 20260506090010 | 42 | 135 | 3.5 | 5.2 | 0.00 | 0.00 | 0.00 | 55 | 1016.1 |
| 20260506085507 | 41 | 131 | 4.3 | 4.3 | 0.00 | 0.00 | 0.00 | 56 | 1016.0 |
| 20260506085003 | 41 | 145 | 1.7 | 3.5 | 0.00 | 0.00 | 0.00 | 57 | 1016.0 |
| 20260506084500 | 41 | 128 | 1.7 | 3.5 | 0.00 | 0.00 | 0.00 | 56 | 1015.9 |
| 20260506083956 | 41 | 117 | 2.6 | 5.2 | 0.00 | 0.00 | 0.00 | 56 | 1015.9 |
| 20260506083454 | 42 | 130 | 2.6 | 3.5 | 0.00 | 0.00 | 0.00 | 55 | 1015.9 |
| 20260506082950 | 41 | 118 | 2.6 | 4.3 | 0.00 | 0.00 | 0.00 | 55 | 1015.8 |
| 20260506082448 | 41 | 122 | 2.6 | 4.3 | 0.00 | 0.00 | 0.00 | 55 | 1015.8 |
| 20260506081943 | 42 | 126 | 2.6 | 3.5 | 0.00 | 0.00 | 0.00 | 55 | 1015.8 |
| 20260506081442 | 41 | 116 | 1.7 | 3.5 | 0.00 | 0.00 | 0.00 | 55 | 1016.0 |
| 20260506080939 | 42 | 128 | 2.6 | 3.5 | 0.00 | 0.00 | 0.00 | 54 | 1015.8 |
| 20260506080436 | 42 | 135 | 2.6 | 3.5 | 0.00 | 0.00 | 0.00 | 54 | 1015.9 |
| 20260506073420 | 42 | 136 | 2.6 | 4.3 | 0.00 | 0.00 | 0.00 | 54 | 1016.2 |
| 20260506072917 | 42 | 125 | 2.6 | 3.5 | 0.00 | 0.00 | 0.00 | 54 | 1016.1 |
| 20260506072414 | 42 | 118 | 1.7 | 4.3 | 0.00 | 0.00 | 0.00 | 54 | 1016.0 |
| 20260506071912 | 42 | 121 | 1.7 | 3.5 | 0.00 | 0.00 | 0.00 | 53 | 1015.9 |
| 20260506071410 | 42 | 131 | 2.6 | 4.3 | 0.00 | 0.00 | 0.00 | 53 | 1016.0 |
| 20260506070906 | 42 | 127 | 1.7 | 3.5 | 0.00 | 0.00 | 0.00 | 52 | 1015.9 |
| 20260506070403 | 43 | 125 | 1.7 | 3.5 | 0.00 | 0.00 | 0.00 | 52 | 1015.7 |